Temperature
7 6 6 7 7 8 7 7 7 8 9 8 8 8 8 9 9 8 8 9 9 9 9 9 9 9 9 9 9 9 9 10 10 10 10 11 11 11 11 11 12 12 12 12
5 6 7 8 8 8 8 7 7 8 8 8 7 7 8 8 8 8 8 8 8 8 8 8 8 8 8 9 9 9 9 9 9 9 10 10 10 11 11 11 11 11 11 12
6 7 8 8 7 7 7 7 7 7 7 8 7 7 7 8 8 8 8 8 8 8 8 8 8 7 8 8 8 8 8 9 9 9 9 9 9 10 10 10 11 11 11 11
7 7 8 7 7 7 7 8 8 7 6 6 7 6 6 7 7 7 7 7 7 7 7 7 7 7 7 7 7 7 8 8 8 8 8 9 9 9 9 10 10 10 10 11
6 7 7 7 7 8 7 8 8 7 6 6 6 5 6 6 7 7 6 7 7 7 7 7 7 6 7 7 7 7 7 7 8 8 8 8 8 8 9 9 9 9 10 10
7 7 7 7 8 8 8 7 7 6 5 6 6 5 6 6 7 7 6 7 7 7 7 6 6 6 6 6 6 7 7 7 7 7 8 8 8 8 8 8 8 8 9 9
6 7 7 8 7 7 7 5 5 5 5 6 6 6 6 7 7 7 6 7 7 7 6 6 6 6 6 6 6 6 6 7 7 7 7 7 7 8 8 8 8 8 8 8
5 5 7 7 7 7 6 6 5 6 5 5 6 6 6 7 7 7 7 7 7 6 6 6 6 6 6 6 6 6 6 6 6 7 7 7 7 7 7 7 7 7 8 8
5 6 7 7 8 7 7 6 6 5 5 5 5 6 7 7 6 6 6 6 6 6 6 6 6 6 5 5 5 5 6 6 6 6 6 7 7 7 7 7 7 7 7 7
6 5 6 7 7 7 7 6 5 5 5 6 6 6 6 7 6 6 5 6 6 6 6 6 6 6 5 5 5 5 5 6 6 6 6 6 6 6 6 6 7 7 7 7
6 5 5 6 6 6 6 6 5 4 4 5 5 6 7 7 6 6 5 6 7 6 6 6 6 5 5 5 5 5 5 5 5 5 6 6 6 6 6 6 6 6 6 6
6 4 4 5 6 7 6 6 5 5 5 4 4 6 7 6 6 6 6 7 7 7 6 6 6 5 5 5 5 5 5 5 5 5 5 5 5 5 5 5 6 6 6 6
6 4 4 5 6 6 6 6 6 5 4 3 4 6 7 6 6 7 7 7 7 6 6 6 5 5 5 5 5 5 5 5 5 5 5 5 5 5 5 5 5 5 5 6
6 4 4 5 6 5 5 5 6 5 3 3 4 5 6 6 6 6 7 7 7 6 6 6 6 5 5 5 5 5 4 4 4 4 4 4 4 4 5 5 5 5 5 5
5 3 3 4 5 5 5 5 5 4 4 4 5 5 6 6 5 6 7 7 6 6 6 6 6 5 5 5 5 4 4 4 4 4 4 4 4 4 4 4 4 4 5 5
4 3 3 3 5 4 4 5 5 5 5 5 5 6 6 7 7 6 6 6 6 6 6 6 6 5 5 5 5 4 4 4 4 4 4 4 4 4 4 4 4 4 4 4
3 3 3 3 3 3 4 5 5 5 5 5 5 6 6 6 5 6 7 7 6 6 6 6 6 6 5 5 5 4 4 4 4 4 4 4 4 4 4 4 4 4 4 4
3 3 3 2 3 4 6 6 6 5 6 5 6 6 5 6 7 7 7 7 7 7 6 6 6 6 5 5 5 4 4 4 4 4 4 4 4 4 4 4 4 4 3 3
3 3 3 2 2 3 5 6 6 5 5 6 5 6 6 7 6 6 8 7 7 7 7 6 6 5 5 5 4 4 4 4 4 4 4 4 4 3 3 3 3 3 3 3
2 3 3 2 3 4 6 7 7 6 6 6 5 5 6 5 4 5 8 7 7 7 6 6 6 5 5 5 4 4 4 4 4 4 3 3 3 3 3 3 3 3 2 2
2 2 2 2 3 3 5 6 6 6 7 8 7 7 6 5 6 8 8 7 7 7 6 6 5 5 5 5 4 4 4 4 4 3 3 3 3 3 3 3 3 2 2 2
2 2 2 2 2 4 5 5 5 6 8 8 8 8 7 7 8 7 7 7 7 6 6 6 5 5 5 4 4 4 4 4 3 3 3 3 3 3 2 2 2 2 2 1
2 3 3 3 5 6 6 7 8 8 8 8 8 8 8 7 7 7 7 7 7 6 6 5 5 5 5 4 4 4 4 4 3 3 3 3 2 2 2 2 2 2 1 1
2 3 2 2 3 5 6 7 8 8 8 8 8 8 7 7 7 7 7 6 6 6 6 5 5 5 4 4 4 4 3 3 3 3 3 2 2 2 2 2 1 1 1 1
3 2 2 2 3 5 7 8 8 8 8 7 7 7 7 7 7 7 6 6 6 6 5 5 5 4 4 4 4 3 3 3 3 2 2 2 2 2 2 2 1 1 1 0
3 3 3 4 5 4 6 8 8 7 7 7 7 7 7 6 6 6 6 6 6 5 5 5 4 4 4 4 3 3 3 3 2 2 2 2 2 2 1 1 1 0 0 -0
Wind_Speed
4 5 3 1 2 2 3 2 2 3 2 1 4 6 8 5 3 3 2 2 1 2 2 3 4 5 5 6 6 6 5 5 4 2 2 2 2 2 2 2 3 3 3 4
6 3 1 1 1 2 2 2 0 2 2 2 4 7 7 5 3 4 3 3 2 2 3 4 5 5 5 6 6 6 6 5 4 2 2 2 2 2 2 2 2 2 3 3
3 2 2 2 3 3 2 2 1 1 4 3 2 5 4 3 1 0 1 1 1 1 2 4 5 5 5 6 6 6 6 6 5 4 2 1 1 1 1 1 2 2 2 2
3 3 2 3 2 1 1 1 1 0 2 3 1 3 6 4 3 2 2 2 2 2 2 3 4 5 5 5 5 5 6 5 5 3 2 2 2 2 2 2 1 2 1 1
2 2 2 1 2 1 2 2 1 0 1 2 1 2 7 3 4 5 4 4 3 2 2 2 3 4 5 5 5 5 5 5 5 3 2 1 1 2 1 1 1 2 1 1
1 2 0 1 2 1 2 3 4 4 3 2 4 4 6 4 6 5 4 4 4 2 2 2 3 4 4 5 5 5 5 5 5 4 3 1 1 1 1 1 2 1 1 1
4 4 2 1 2 4 4 4 3 4 2 5 3 3 7 7 6 6 6 5 4 3 2 2 3 4 5 5 6 5 5 5 5 4 3 2 2 1 1 2 1 1 1 1
3 4 3 1 1 1 1 3 3 2 3 5 3 5 6 5 3 3 4 4 3 3 2 2 3 3 4 5 5 5 4 4 4 4 4 3 2 1 1 1 1 1 1 1
1 4 3 2 2 2 1 1 3 3 2 4 5 6 6 1 1 2 3 3 3 3 3 3 3 3 3 4 4 4 4 4 4 4 3 3 3 2 2 2 1 1 1 1
1 3 4 3 1 1 2 2 3 2 1 4 6 5 5 5 6 5 5 5 5 4 4 4 3 2 3 3 3 3 3 3 3 3 3 3 3 3 2 2 2 2 1 1
0 1 4 2 2 3 2 1 2 2 3 3 4 7 5 6 6 6 7 6 6 5 4 4 3 3 2 2 2 3 3 3 3 3 2 2 3 3 2 2 2 1 1 1
0 1 3 6 4 3 4 4 5 2 3 3 3 7 5 5 5 5 6 5 5 5 4 4 3 2 2 2 2 2 2 2 3 2 2 2 2 2 2 2 1 1 1 1
1 2 3 5 3 1 2 3 4 3 2 4 4 8 3 2 2 3 4 5 5 5 4 3 3 2 2 2 3 2 2 2 2 2 2 2 2 2 2 2 2 1 1 1
2 3 6 7 6 3 5 6 5 5 4 5 9 11 9 6 6 5 5 6 5 5 5 4 4 3 3 3 3 3 3 2 2 1 1 1 2 2 2 2 2 1 1 1
3 3 6 10 10 8 11 13 10 11 10 10 9 10 14 9 8 7 6 5 5 5 5 5 5 4 3 3 3 3 3 3 2 1 1 2 1 1 1 1 1 1 1 1
1 3 4 6 7 8 12 15 14 13 12 14 14 15 13 8 5 6 6 6 6 6 7 6 5 4 4 4 3 3 3 3 1 1 2 2 1 1 1 1 1 1 1 1
2 2 2 5 6 7 9 11 11 8 8 10 13 13 7 6 7 8 7 7 7 7 7 6 6 6 6 5 4 4 4 2 1 1 2 1 1 1 1 1 1 1 0 0
5 3 2 4 6 6 8 3 6 7 9 11 10 9 8 9 8 7 7 8 8 7 7 7 6 6 5 4 4 3 2 2 1 1 1 1 1 1 0 1 1 1 0 0
7 5 3 2 5 9 10 5 5 5 7 8 11 10 7 4 3 5 7 7 8 8 7 6 6 5 5 4 4 2 2 2 2 2 2 2 1 0 0 0 1 1 0 1
5 5 4 3 4 7 7 2 2 2 6 6 7 8 6 3 3 6 5 6 6 6 5 5 4 4 4 4 3 3 3 3 4 4 3 2 1 1 1 1 1 1 0 1
4 5 8 8 7 10 8 3 4 3 6 3 4 6 6 8 9 5 4 5 6 5 5 4 5 5 5 4 4 4 4 5 5 3 2 2 2 2 2 1 1 1 1 0
9 7 8 7 8 11 6 7 7 9 4 4 5 6 7 9 8 6 6 6 6 5 5 4 5 5 5 5 5 5 6 6 4 3 3 2 2 2 1 1 1 0 1 1
9 10 7 11 12 6 6 9 8 5 6 6 6 7 7 7 8 7 6 7 6 6 6 5 6 6 5 5 6 7 6 4 4 3 3 3 2 2 1 2 2 1 1 1
6 6 6 8 12 11 11 10 10 9 10 9 8 8 7 8 9 9 7 7 7 7 6 5 5 6 6 6 6 7 5 4 4 5 4 3 3 2 2 2 2 2 2 2
8 6 6 10 11 10 11 12 12 10 9 9 9 9 10 10 9 9 8 8 7 7 6 6 7 7 7 6 6 6 5 4 5 5 4 4 3 3 2 2 2 3 3 3
9 11 10 13 11 9 9 8 8 9 10 11 10 10 9 10 11 10 9 8 7 7 6 6 7 7 7 6 6 6 5 5 6 5 5 4 3 3 3 2 2 3 3 3
Wind_Direction
30 60 66 185 185 190 175 174 224 255 254 255 246 265 280 278 241 228 230 236 261 284 307 338 346 344 345 341 339 328 321 315 316 306 289 273 270 277 279 270 268 260 254 227
48 40 297 243 47 73 100 134 267 311 318 265 257 271 274 264 238 213 203 211 233 311 344 349 349 351 349 342 338 329 325 318 311 299 273 246 245 254 253 272 294 286 262 238
90 278 314 58 41 55 41 152 205 270 333 353 344 310 290 288 281 127 148 184 215 273 312 326 340 343 347 344 335 329 325 321 319 308 298 301 306 319 313 306 293 303 283 253
34 339 35 61 26 65 332 240 212 3 26 309 36 294 285 274 289 264 241 254 266 282 304 319 329 334 333 324 323 327 327 327 323 320 306 265 251 256 271 275 266 289 303 277
357 347 39 37 319 52 251 293 297 246 116 322 288 219 282 284 259 260 243 244 256 264 283 308 315 317 326 328 327 326 329 335 333 330 321 291 263 257 273 293 293 298 303 313
321 322 60 250 322 343 331 18 33 43 67 296 234 197 277 242 231 249 237 234 241 253 274 297 316 328 331 334 336 335 341 341 341 344 347 344 300 278 292 301 290 299 304 320
352 337 339 22 14 6 40 66 38 6 354 261 244 207 252 248 228 219 221 225 229 232 252 297 319 327 329 330 333 336 344 341 343 352 358 1 346 333 270 266 256 260 279 290
8 317 287 294 200 223 309 123 142 204 253 287 288 242 257 259 239 213 204 205 208 226 246 273 295 306 313 321 330 338 341 340 348 358 358 3 1 345 319 312 300 283 271 256
21 288 297 259 235 156 141 190 182 152 289 279 273 279 296 220 224 202 206 203 215 227 237 259 282 299 306 313 321 330 335 337 347 352 356 2 7 6 349 341 343 335 317 288
181 280 288 293 18 340 172 162 96 128 245 284 287 270 254 247 239 235 230 227 230 231 244 258 274 290 296 304 317 331 335 333 341 352 354 359 1 354 346 356 359 348 333 336
91 231 301 321 220 216 182 182 163 166 188 210 280 275 231 227 226 224 231 230 227 228 237 246 256 267 283 309 323 330 337 343 342 343 349 357 355 359 4 1 342 327 341 7
5 134 275 266 261 223 195 196 161 178 249 217 235 270 271 241 236 217 231 237 233 226 228 231 236 254 283 302 309 313 326 333 328 329 349 356 354 8 10 349 333 340 20 27
99 110 330 333 331 331 244 224 188 175 190 209 219 262 298 308 270 241 237 242 241 229 226 228 236 248 261 274 292 302 310 308 315 334 348 351 352 355 352 338 345 8 31 33
116 183 200 225 238 233 258 256 227 195 213 235 231 255 276 278 272 269 258 246 237 228 218 217 227 239 250 261 275 286 297 296 300 311 323 322 329 331 333 339 351 7 28 40
119 239 247 257 263 254 252 254 237 221 217 226 246 249 263 256 247 247 247 243 234 234 226 223 224 230 240 259 275 280 285 291 287 288 286 286 301 317 334 347 345 359 17 23
168 249 283 281 270 267 265 256 242 236 231 237 256 269 263 255 242 244 243 233 232 236 232 229 226 227 232 240 252 266 272 275 274 277 280 290 307 323 332 337 353 19 16 15
238 222 302 282 310 322 275 244 216 215 215 210 234 246 258 255 245 238 230 225 227 232 232 226 223 225 225 228 230 242 251 251 254 272 291 296 280 298 310 341 23 9 340 17
190 180 237 289 336 268 247 250 200 220 242 223 233 247 238 237 244 236 219 216 228 231 230 227 223 225 224 220 226 236 227 206 219 256 287 282 248 266 326 36 22 325 333 335
182 175 217 258 284 280 287 263 201 211 269 232 230 248 251 251 300 278 233 212 218 222 225 223 219 216 215 215 215 211 208 203 210 236 252 255 227 218 45 8 292 273 307 317
156 166 197 217 249 256 256 254 157 105 280 254 215 236 238 168 241 262 232 215 224 226 222 219 210 198 209 216 197 193 207 209 225 233 238 233 206 197 214 236 256 267 248 261
157 189 212 223 241 265 255 216 135 192 251 263 212 223 209 203 222 243 227 220 221 223 225 212 199 204 216 208 188 201 213 227 231 224 222 225 218 217 220 229 247 247 227 263
186 190 202 196 217 251 222 153 190 223 243 238 231 226 222 232 247 250 237 229 226 227 227 212 206 220 220 200 191 212 229 234 217 202 211 224 226 224 220 207 222 215 195 220
204 200 198 203 221 245 199 207 229 221 232 238 233 237 231 237 245 245 239 234 230 227 225 214 212 224 224 207 198 218 235 221 196 195 214 226 225 225 210 200 207 201 192 221
243 208 216 247 256 254 251 251 255 242 239 244 239 239 230 235 242 242 240 236 232 228 223 217 216 224 229 222 215 224 231 207 193 204 215 213 211 221 223 218 207 200 212 229
227 208 225 250 264 276 263 246 247 250 249 251 249 240 233 233 238 233 234 233 230 229 224 214 216 223 230 225 224 226 215 196 201 212 215 211 208 208 213 218 222 218 222 216
212 217 225 247 239 234 257 258 250 251 253 252 252 250 239 227 233 231 230 229 224 224 221 220 222 226 229 223 226 225 208 196 200 212 216 211 205 205 204 210 254 253 239 251
Height
1505 1509 1512 1511 1510 1510 1511 1512 1512 1510 1507 1508 1508 1506 1502 1499 1499 1498 1498 1498 1497 1497 1496 1495 1493 1491 1490 1488 1486 1484 1483 1482 1481 1481 1481 1481 1482 1483 1484 1485 1487 1488 1490 1491
1511 1513 1510 1509 1508 1508 1510 1512 1512 1510 1507 1508 1508 1505 1500 1498 1497 1496 1496 1496 1495 1495 1494 1493 1491 1489 1487 1485 1483 1482 1480 1479 1478 1477 1477 1478 1478 1479 1480 1481 1482 1483 1485 1486
1512 1513 1509 1509 1510 1511 1511 1513 1512 1512 1510 1507 1509 1506 1501 1496 1495 1495 1495 1494 1494 1493 1492 1491 1489 1487 1485 1483 1481 1479 1477 1476 1475 1474 1474 1474 1475 1475 1476 1477 1478 1479 1481 1482
1513 1511 1510 1511 1512 1511 1513 1510 1510 1511 1515 1517 1514 1517 1504 1497 1496 1494 1493 1493 1493 1492 1491 1489 1487 1485 1483 1481 1479 1477 1475 1474 1473 1472 1472 1472 1472 1472 1472 1473 1474 1475 1477 1478
1515 1513 1512 1513 1512 1511 1512 1509 1510 1511 1515 1518 1515 1518 1507 1498 1496 1493 1492 1491 1491 1490 1489 1488 1486 1484 1481 1479 1477 1475 1473 1472 1471 1469 1469 1469 1469 1469 1470 1470 1470 1471 1473 1473
1515 1514 1513 1513 1512 1511 1511 1511 1512 1515 1518 1520 1513 1517 1508 1499 1493 1490 1489 1489 1489 1488 1488 1486 1484 1482 1480 1478 1475 1473 1471 1470 1469 1468 1467 1466 1466 1467 1467 1467 1467 1468 1468 1470
1519 1516 1514 1513 1514 1513 1514 1519 1525 1525 1526 1519 1509 1511 1504 1491 1488 1487 1487 1486 1487 1487 1486 1484 1482 1480 1478 1476 1474 1471 1470 1468 1467 1466 1465 1464 1464 1464 1464 1465 1465 1465 1465 1466
1524 1523 1516 1514 1514 1515 1516 1519 1527 1527 1525 1519 1509 1508 1496 1487 1485 1484 1484 1485 1485 1485 1484 1483 1481 1479 1477 1475 1473 1470 1468 1467 1466 1464 1463 1463 1462 1462 1462 1462 1462 1462 1463 1463
1525 1523 1515 1513 1513 1514 1515 1518 1518 1524 1524 1522 1513 1503 1491 1485 1485 1484 1484 1484 1484 1483 1482 1481 1479 1478 1476 1474 1472 1470 1467 1465 1464 1463 1462 1461 1461 1460 1460 1460 1460 1460 1460 1461
1522 1524 1517 1514 1513 1513 1514 1515 1521 1524 1523 1519 1511 1504 1496 1486 1485 1483 1483 1482 1481 1481 1480 1479 1478 1476 1474 1473 1471 1469 1467 1464 1463 1461 1460 1459 1458 1458 1457 1457 1457 1457 1458 1458
1521 1524 1521 1516 1515 1514 1515 1516 1517 1522 1523 1523 1517 1502 1485 1482 1480 1481 1480 1479 1479 1479 1478 1477 1476 1475 1473 1471 1469 1467 1465 1463 1462 1460 1459 1457 1456 1456 1455 1455 1455 1455 1455 1455
1521 1525 1525 1518 1512 1510 1511 1512 1516 1521 1520 1521 1521 1502 1479 1478 1477 1477 1477 1477 1477 1477 1476 1475 1474 1473 1472 1470 1468 1466 1464 1462 1461 1459 1458 1456 1455 1454 1454 1453 1453 1453 1453 1453
1521 1525 1528 1519 1517 1513 1511 1509 1511 1514 1518 1521 1518 1498 1479 1477 1476 1476 1476 1475 1475 1475 1474 1473 1472 1471 1470 1468 1466 1465 1463 1461 1460 1458 1457 1455 1454 1453 1453 1452 1451 1451 1451 1451
1519 1524 1527 1521 1513 1512 1511 1508 1508 1511 1517 1514 1505 1490 1479 1477 1476 1475 1474 1473 1472 1472 1471 1471 1470 1469 1468 1467 1465 1463 1462 1461 1459 1458 1456 1455 1453 1452 1451 1450 1450 1449 1449 1449
1519 1522 1519 1515 1510 1509 1507 1503 1503 1505 1504 1504 1491 1487 1475 1474 1473 1472 1471 1470 1470 1469 1469 1468 1467 1467 1466 1465 1463 1462 1460 1459 1458 1456 1455 1453 1452 1451 1450 1449 1448 1448 1448 1448
1519 1520 1517 1513 1505 1505 1501 1494 1494 1494 1493 1490 1486 1479 1469 1469 1469 1468 1468 1467 1467 1466 1466 1466 1465 1464 1463 1462 1461 1460 1459 1458 1457 1455 1454 1453 1452 1450 1449 1448 1448 1447 1447 1446
1518 1519 1518 1516 1509 1504 1497 1483 1484 1484 1480 1481 1480 1472 1466 1466 1465 1464 1464 1464 1463 1463 1463 1463 1462 1462 1461 1460 1459 1458 1457 1456 1455 1454 1453 1452 1450 1449 1448 1447 1446 1446 1445 1445
1516 1517 1518 1517 1513 1504 1482 1473 1474 1475 1472 1470 1467 1464 1463 1462 1461 1460 1460 1460 1460 1460 1460 1459 1459 1459 1458 1457 1457 1456 1455 1454 1453 1452 1451 1450 1449 1448 1447 1446 1445 1444 1444 1443
1510 1514 1517 1517 1515 1499 1479 1471 1471 1472 1469 1463 1462 1460 1459 1459 1459 1457 1456 1456 1457 1457 1457 1456 1456 1456 1455 1454 1454 1453 1453 1452 1451 1450 1449 1448 1447 1446 1445 1444 1443 1443 1442 1441
1508 1510 1515 1515 1511 1497 1474 1468 1467 1470 1468 1457 1457 1457 1457 1458 1462 1456 1453 1453 1453 1454 1454 1453 1452 1452 1452 1451 1451 1450 1450 1449 1448 1448 1447 1446 1445 1444 1443 1442 1442 1441 1440 1439
1509 1510 1510 1509 1506 1488 1469 1466 1467 1474 1464 1455 1454 1454 1454 1454 1453 1451 1451 1450 1450 1450 1450 1450 1449 1448 1448 1448 1447 1447 1446 1446 1446 1445 1445 1444 1443 1442 1441 1440 1439 1438 1437 1437
1500 1503 1503 1502 1501 1483 1461 1463 1465 1459 1453 1452 1451 1451 1450 1449 1448 1448 1447 1447 1447 1446 1446 1446 1445 1445 1445 1444 1444 1443 1443 1443 1443 1442 1441 1441 1440 1440 1439 1438 1437 1436 1435 1434
1488 1485 1483 1482 1471 1458 1455 1454 1452 1451 1450 1449 1448 1448 1447 1446 1445 1444 1443 1443 1443 1443 1442 1442 1441 1441 1441 1441 1440 1439 1439 1439 1439 1438 1438 1437 1437 1436 1436 1435 1434 1433 1433 1432
1477 1473 1475 1471 1458 1453 1451 1449 1448 1447 1446 1445 1445 1444 1443 1441 1440 1440 1439 1439 1438 1438 1438 1437 1437 1436 1436 1436 1436 1436 1436 1436 1435 1434 1434 1434 1433 1433 1432 1431 1431 1430 1429 1428
1468 1467 1467 1461 1452 1448 1443 1442 1442 1441 1441 1440 1439 1438 1437 1436 1434 1434 1434 1433 1433 1433 1433 1432 1432 1431 1431 1432 1431 1432 1431 1431 1430 1430 1430 1430 1429 1429 1428 1428 1427 1426 1426 1425
1455 1457 1457 1448 1442 1442 1437 1437 1436 1435 1434 1434 1433 1431 1430 1430 1428 1428 1427 1427 1428 1427 1427 1427 1427 1426 1427 1427 1427 1427 1427 1426 1426 1425 1425 1425 1425 1425 1424 1424 1423 1423 1422 1421